Probability
0 0 0 0 0 0 0 0 0 0 0 0 0 0 0 0 0 0 0 0 0 0 0 0 3 3 0 0 0 0 0 0 0 0 0 10 6 3 3 6 0 0 0 0
0 0 0 0 0 0 0 0 0 0 0 0 0 0 0 0 0 0 0 0 0 0 0 0 0 3 3 0 0 0 0 0 0 3 0 3 6 0 0 3 3 0 0 0
0 0 0 0 0 0 0 0 0 0 0 0 0 0 0 0 0 0 0 0 0 0 0 3 3 3 10 3 0 0 0 0 0 3 0 0 3 0 0 0 0 0 0 0
0 0 0 0 0 0 0 0 0 0 0 0 0 0 0 0 0 0 0 0 0 0 0 3 6 6 6 6 3 0 0 0 0 3 0 0 0 0 0 0 0 0 0 0
0 0 0 0 0 0 0 0 0 0 0 0 0 0 0 0 0 0 0 0 0 0 0 0 3 6 6 3 3 3 3 3 3 3 3 3 0 3 3 3 0 0 0 0
0 0 0 0 0 0 0 0 0 0 0 0 0 0 0 0 0 0 0 0 0 0 0 0 6 6 6 10 10 3 3 3 6 10 3 0 0 0 0 0 0 0 0 0
0 0 0 0 0 0 0 0 0 0 0 0 0 0 0 0 0 0 0 0 0 0 0 0 0 6 10 10 6 3 3 10 10 6 0 0 0 0 3 0 0 0 0 0
0 0 0 0 0 0 0 0 0 0 0 0 0 0 0 0 0 0 0 0 0 0 0 0 0 6 10 10 6 10 6 6 6 6 3 0 0 0 3 0 0 0 0 0
0 0 0 0 0 0 0 0 0 0 0 0 0 0 0 0 0 0 0 0 0 0 0 0 0 3 3 6 6 6 6 6 6 3 6 6 3 3 3 0 0 0 0 0
0 0 0 0 0 0 0 0 0 0 0 0 0 0 0 0 0 0 0 0 0 0 0 0 3 3 3 3 3 6 6 3 0 0 3 3 3 3 3 3 0 0 0 0
0 0 0 0 0 0 0 0 0 0 0 0 0 0 0 0 0 0 0 0 0 0 0 0 3 3 3 3 3 3 3 6 3 3 0 0 0 3 3 3 0 3 6 6
0 0 0 0 0 0 0 0 0 0 0 0 0 0 0 0 0 0 0 0 0 0 0 0 0 3 3 3 3 3 0 0 3 3 3 3 3 3 0 0 3 3 6 3
0 0 0 0 0 0 0 0 0 0 0 0 0 0 0 0 0 0 0 0 0 0 0 0 0 0 3 3 3 3 0 0 3 3 3 3 3 3 3 3 0 0 0 0
0 0 0 0 0 0 0 0 0 0 0 0 0 0 0 0 0 0 0 0 0 0 0 0 0 0 0 0 3 3 0 0 0 0 0 0 0 0 0 0 0 0 0 0
0 0 0 0 0 0 0 0 0 0 0 0 0 0 0 0 0 0 0 0 0 0 0 0 0 0 0 0 0 3 3 0 0 0 0 0 0 0 0 0 0 0 0 0
0 0 0 0 0 0 0 0 0 0 0 0 0 0 0 0 0 0 0 0 0 0 0 0 0 0 0 0 0 0 3 0 0 0 0 0 0 0 0 0 0 0 0 0
0 0 0 0 0 0 0 0 0 0 0 0 0 0 0 0 0 0 0 0 0 0 0 0 0 0 0 0 0 0 0 0 0 0 0 0 0 0 0 0 0 0 0 0
0 0 0 0 0 0 0 0 0 0 0 0 0 0 0 0 0 0 0 0 0 0 0 0 0 0 0 0 0 0 0 0 0 0 0 0 0 0 0 0 0 0 0 0
0 0 0 0 0 0 0 0 0 0 0 0 0 0 0 0 0 0 0 0 0 0 0 0 0 0 0 0 0 0 0 0 0 0 0 0 0 0 0 0 0 0 0 0
0 0 0 0 0 0 0 0 0 0 0 0 0 0 0 0 0 0 0 0 0 0 0 0 0 0 0 0 0 0 0 0 0 0 0 0 0 0 0 0 0 0 0 0
0 0 0 0 0 0 0 0 0 0 0 0 0 0 0 0 0 0 0 0 0 0 0 0 0 0 0 0 0 0 0 0 0 0 0 0 0 0 0 0 0 0 0 0
0 0 0 0 0 0 0 0 0 0 0 0 0 0 0 0 0 0 0 0 0 0 0 0 0 0 0 0 0 0 0 0 0 0 0 0 0 0 0 0 0 0 0 0
0 0 0 0 0 0 0 0 0 0 0 0 0 0 0 0 0 0 0 0 0 0 0 0 0 0 0 0 0 0 0 0 0 0 0 0 0 0 0 0 0 0 0 0
0 0 0 0 0 0 0 0 0 0 0 0 0 0 0 0 0 0 0 0 0 0 0 0 0 0 0 0 0 0 0 0 0 0 0 0 0 0 0 0 0 0 0 0
0 0 0 0 0 0 0 0 0 0 0 0 0 0 0 0 0 0 0 0 0 0 0 0 0 0 0 0 0 0 0 0 0 0 0 0 0 0 0 0 0 0 0 0
0 0 0 0 0 0 0 0 0 0 0 0 0 0 0 0 0 0 0 0 0 0 0 0 0 0 0 0 0 0 0 0 0 0 0 0 0 0 0 0 0 0 0 0
Height
5879 5880 5879 5879 5879 5878 5878 5877 5877 5876 5875 5875 5873 5872 5872 5870 5870 5868 5867 5866 5865 5865 5864 5864 5863 5863 5862 5861 5861 5860 5860 5859 5859 5859 5859 5858 5858 5858 5858 5858 5858 5858 5858 5858
5879 5879 5879 5878 5878 5877 5877 5876 5876 5875 5874 5874 5873 5872 5871 5870 5869 5868 5867 5866 5865 5864 5864 5863 5862 5862 5861 5861 5860 5859 5859 5859 5858 5858 5858 5858 5857 5857 5857 5857 5857 5857 5857 5857
5878 5878 5877 5877 5877 5877 5876 5876 5875 5874 5874 5873 5872 5872 5871 5870 5869 5868 5866 5865 5864 5863 5863 5862 5862 5861 5860 5860 5859 5859 5858 5858 5857 5857 5857 5857 5856 5856 5856 5856 5856 5856 5856 5856
5877 5877 5876 5876 5876 5876 5875 5874 5874 5873 5873 5872 5872 5871 5870 5868 5868 5867 5866 5865 5864 5862 5862 5861 5861 5860 5859 5859 5858 5857 5857 5857 5857 5856 5856 5856 5855 5855 5855 5855 5855 5854 5855 5855
5875 5875 5875 5875 5875 5874 5874 5874 5873 5872 5872 5872 5871 5870 5870 5868 5867 5866 5865 5864 5863 5862 5861 5860 5860 5859 5858 5858 5857 5856 5856 5856 5855 5855 5855 5854 5854 5854 5854 5854 5854 5853 5853 5854
5874 5874 5874 5873 5873 5873 5873 5873 5872 5871 5871 5871 5871 5870 5868 5867 5866 5865 5864 5863 5862 5861 5860 5859 5858 5858 5857 5857 5856 5855 5855 5854 5854 5854 5853 5853 5853 5853 5853 5853 5853 5852 5853 5853
5871 5872 5872 5872 5872 5872 5872 5872 5871 5870 5870 5870 5870 5868 5868 5865 5864 5863 5862 5861 5860 5859 5858 5858 5857 5856 5856 5855 5854 5854 5853 5852 5852 5852 5852 5852 5851 5851 5851 5851 5851 5851 5851 5851
5869 5870 5870 5870 5870 5870 5870 5870 5871 5870 5870 5869 5868 5866 5866 5864 5863 5862 5861 5860 5858 5858 5857 5856 5855 5854 5854 5853 5852 5852 5851 5851 5850 5850 5850 5850 5850 5850 5850 5850 5850 5850 5850 5850
5867 5867 5867 5867 5867 5868 5868 5867 5868 5868 5867 5867 5866 5865 5863 5862 5861 5860 5859 5858 5857 5856 5855 5854 5853 5852 5852 5851 5850 5850 5849 5849 5848 5848 5848 5848 5848 5848 5848 5848 5848 5848 5848 5848
5865 5865 5865 5865 5865 5865 5866 5865 5866 5865 5865 5865 5865 5863 5862 5860 5859 5858 5857 5856 5855 5854 5853 5852 5851 5851 5850 5849 5848 5848 5847 5846 5846 5846 5846 5846 5846 5847 5847 5847 5847 5847 5847 5847
5862 5862 5863 5862 5862 5863 5863 5863 5863 5862 5862 5862 5862 5863 5859 5858 5857 5856 5855 5854 5853 5852 5851 5850 5850 5849 5848 5847 5846 5845 5845 5844 5844 5844 5844 5845 5845 5845 5845 5845 5845 5845 5845 5845
5858 5859 5859 5859 5859 5859 5859 5860 5860 5860 5860 5859 5859 5861 5857 5856 5855 5854 5853 5852 5851 5850 5849 5848 5848 5847 5846 5845 5844 5843 5842 5842 5842 5842 5842 5843 5843 5843 5843 5843 5843 5843 5843 5843
5854 5855 5856 5856 5857 5857 5856 5856 5856 5857 5857 5856 5856 5858 5854 5854 5852 5851 5850 5849 5848 5847 5847 5846 5845 5844 5843 5842 5842 5841 5840 5840 5840 5840 5840 5840 5840 5840 5841 5841 5841 5841 5842 5841
5850 5851 5852 5853 5852 5852 5852 5853 5853 5853 5853 5853 5853 5853 5851 5850 5850 5849 5848 5847 5846 5845 5844 5843 5843 5842 5841 5839 5838 5838 5837 5837 5837 5837 5837 5838 5838 5838 5838 5838 5839 5839 5839 5839
5846 5847 5847 5848 5848 5848 5848 5849 5850 5850 5849 5849 5850 5849 5848 5847 5846 5846 5845 5844 5843 5842 5841 5840 5840 5839 5838 5836 5836 5835 5834 5834 5834 5834 5835 5835 5835 5835 5835 5835 5836 5836 5836 5837
5841 5842 5842 5843 5843 5843 5844 5845 5845 5846 5846 5845 5845 5845 5845 5843 5843 5842 5841 5841 5840 5839 5838 5837 5836 5835 5834 5833 5833 5832 5831 5831 5831 5831 5831 5831 5831 5831 5832 5832 5833 5833 5834 5834
5836 5837 5838 5838 5839 5839 5840 5841 5841 5841 5841 5841 5841 5841 5840 5839 5838 5838 5837 5836 5836 5835 5835 5834 5833 5832 5831 5830 5829 5829 5828 5827 5827 5827 5827 5827 5827 5827 5828 5829 5829 5830 5830 5830
5831 5832 5833 5833 5835 5834 5838 5837 5836 5836 5836 5836 5836 5835 5835 5834 5834 5833 5833 5832 5832 5832 5831 5830 5829 5828 5827 5826 5826 5825 5824 5824 5823 5823 5823 5823 5823 5824 5824 5825 5825 5826 5826 5826
5826 5827 5827 5828 5828 5829 5832 5831 5831 5831 5831 5831 5830 5830 5829 5829 5829 5828 5828 5828 5828 5827 5827 5826 5825 5824 5823 5822 5822 5821 5820 5820 5819 5819 5819 5819 5819 5819 5820 5820 5821 5821 5822 5822
5820 5821 5822 5822 5822 5823 5827 5826 5825 5826 5826 5826 5824 5824 5824 5823 5824 5824 5823 5823 5823 5822 5822 5821 5820 5819 5819 5818 5817 5817 5816 5815 5815 5814 5814 5813 5814 5815 5815 5815 5816 5816 5817 5817
5813 5814 5815 5816 5816 5817 5820 5820 5820 5821 5821 5820 5819 5818 5818 5818 5818 5819 5818 5817 5817 5817 5817 5816 5815 5815 5814 5813 5812 5811 5811 5810 5809 5809 5808 5808 5808 5809 5809 5810 5810 5811 5811 5812
5807 5808 5809 5810 5810 5813 5814 5814 5814 5814 5813 5813 5813 5812 5812 5812 5812 5813 5812 5812 5812 5812 5811 5811 5810 5809 5808 5807 5807 5806 5805 5804 5803 5803 5802 5802 5802 5803 5803 5804 5804 5805 5805 5806
5800 5802 5802 5803 5805 5806 5806 5806 5807 5806 5806 5806 5806 5806 5806 5806 5806 5807 5807 5806 5806 5806 5805 5805 5804 5803 5803 5802 5801 5800 5799 5798 5797 5796 5796 5796 5796 5797 5797 5798 5798 5799 5799 5799
5793 5794 5795 5796 5797 5798 5798 5798 5798 5798 5799 5799 5799 5800 5800 5799 5800 5800 5800 5800 5800 5799 5799 5798 5798 5797 5796 5795 5794 5793 5792 5791 5790 5790 5789 5790 5790 5790 5790 5791 5791 5792 5792 5792
5785 5786 5787 5788 5789 5789 5790 5790 5790 5791 5791 5792 5792 5793 5793 5793 5793 5793 5794 5793 5793 5792 5792 5792 5791 5790 5790 5789 5787 5786 5785 5784 5783 5782 5782 5782 5783 5783 5783 5784 5784 5784 5785 5785
5777 5778 5779 5780 5781 5780 5781 5782 5782 5783 5783 5784 5784 5785 5786 5786 5786 5786 5786 5786 5786 5785 5785 5784 5784 5783 5782 5781 5780 5779 5778 5777 5776 5776 5775 5775 5775 5775 5776 5776 5776 5776 5777 5777
Wind_Speed
4 4 3 4 4 5 5 6 7 7 8 8 8 8 9 9 10 9 9 9 10 8 8 8 7 6 6 7 7 7 7 7 7 7 6 6 6 6 5 5 5 5 5 4
4 4 4 5 5 5 6 6 7 7 8 8 8 8 9 9 10 9 9 9 9 9 8 7 8 7 7 7 8 8 7 7 7 7 6 7 6 6 6 6 6 5 5 4
5 5 5 5 5 6 6 6 7 7 7 8 8 8 9 9 9 10 9 10 10 9 8 7 7 7 7 8 8 8 7 6 7 7 6 6 6 6 6 6 6 5 5 5
6 6 6 6 6 6 6 6 6 6 7 7 9 9 9 11 10 10 10 10 10 9 9 8 7 7 7 8 8 7 7 7 7 7 7 7 7 6 6 6 6 5 6 5
7 7 7 7 7 6 6 6 6 6 7 7 9 10 11 12 12 11 11 11 10 10 9 9 9 8 8 8 8 8 7 7 8 8 7 7 7 7 7 6 6 6 6 6
8 8 8 8 7 6 6 6 6 6 7 8 9 10 13 13 13 13 12 12 10 10 10 9 9 9 9 9 9 8 8 8 8 8 8 8 8 7 7 6 6 5 6 6
10 9 9 8 8 7 7 6 6 6 8 9 10 12 13 14 13 13 12 12 12 11 10 10 9 9 9 9 9 9 8 8 8 8 8 8 8 7 6 6 5 6 6 6
11 11 10 9 9 8 8 7 7 7 7 9 12 13 13 14 13 13 13 13 12 12 11 10 9 9 9 10 9 9 8 9 8 8 8 8 7 7 7 6 6 6 6 6
11 12 11 10 10 9 9 9 9 9 9 9 11 13 12 12 13 13 13 12 12 12 11 10 10 10 10 10 9 9 9 9 8 9 9 8 7 7 7 7 6 6 6 6
13 12 12 12 11 11 10 10 10 10 10 9 11 13 14 12 12 13 13 12 12 11 11 10 11 10 11 11 10 10 10 9 8 9 9 8 8 7 7 7 7 6 6 7
14 14 13 13 12 12 12 11 11 11 11 10 9 12 13 13 13 13 13 13 12 12 11 11 12 11 11 11 10 10 10 10 9 9 9 9 8 8 8 8 7 7 7 7
15 15 15 14 14 13 13 13 12 12 12 11 12 14 13 13 13 14 14 13 13 13 12 12 12 12 11 11 11 11 10 10 10 9 9 9 8 8 8 8 8 7 7 7
16 16 16 15 15 14 14 14 13 13 13 13 13 15 15 14 13 14 13 14 14 14 13 12 12 12 12 12 12 12 11 10 10 10 9 9 10 9 9 9 8 8 8 8
17 17 17 16 16 16 15 14 15 15 14 13 14 15 16 16 15 15 15 15 15 14 13 13 13 13 13 13 13 12 12 11 10 11 10 11 11 11 10 9 9 9 9 9
17 17 17 17 17 17 17 16 16 16 15 15 16 16 16 16 16 15 15 15 15 14 14 13 13 13 13 13 12 12 12 11 11 11 12 11 12 12 11 10 10 10 10 10
19 19 18 18 17 17 18 17 17 17 16 17 17 18 17 17 17 16 16 15 14 14 15 15 15 14 13 13 13 12 12 12 13 13 13 13 13 12 12 11 11 11 12 12
20 19 19 18 18 19 18 17 17 18 18 18 18 18 18 18 18 17 17 17 16 16 16 17 16 15 14 14 14 14 13 14 14 14 14 14 14 13 13 13 13 13 13 13
20 20 20 19 19 20 18 18 18 19 19 19 19 19 19 19 19 18 18 18 17 17 18 17 17 16 16 15 15 15 15 15 15 15 16 16 15 14 14 14 14 14 15 15
21 21 22 22 22 22 20 20 19 19 20 19 20 20 20 19 19 19 18 18 17 18 18 18 17 17 17 16 16 16 16 16 16 16 16 16 16 16 16 16 16 15 16 16
23 23 24 24 24 24 22 20 20 20 20 19 20 20 20 20 19 19 19 18 17 18 18 18 18 18 18 17 17 17 18 18 17 17 17 17 17 17 17 17 17 17 17 17
24 25 25 25 25 26 23 22 22 22 22 21 21 21 20 20 20 20 20 19 18 19 19 19 19 19 19 18 18 19 19 19 18 19 19 18 18 19 19 19 19 19 19 19
26 26 26 26 27 26 24 24 24 24 24 23 22 22 22 21 21 21 21 20 20 20 20 20 20 20 20 20 20 20 21 21 20 20 20 19 19 20 20 20 20 21 21 21
28 27 27 27 27 26 26 25 25 26 26 25 24 24 23 23 22 22 21 22 22 22 22 21 21 21 20 21 21 22 22 22 22 21 21 21 21 21 21 21 22 22 22 23
29 29 29 29 29 28 29 28 27 27 27 27 26 25 24 24 23 23 23 23 23 23 23 23 22 21 21 22 22 22 22 23 22 22 22 22 22 23 23 23 23 24 23 23
31 30 30 30 30 30 30 30 29 28 28 28 27 26 25 25 24 24 24 24 24 25 24 24 23 22 22 23 23 24 23 23 23 22 22 23 23 24 24 24 24 24 25 24
31 32 31 31 31 32 31 31 31 30 30 29 28 27 27 27 26 25 25 25 25 25 25 25 24 24 24 24 24 24 24 24 24 23 23 24 24 25 25 24 25 25 26 26
Wind_Direction
313 316 324 322 318 317 324 319 322 323 327 328 325 329 335 336 338 336 334 333 335 333 330 332 329 320 320 319 319 317 318 320 319 318 316 312 307 309 310 305 301 304 298 294
300 303 301 302 307 307 312 310 310 314 320 322 321 325 329 332 335 331 329 329 330 333 332 327 324 321 320 324 321 319 318 317 320 320 318 314 308 304 304 300 296 297 299 292
281 287 299 295 294 299 303 305 308 314 315 316 320 322 326 326 329 326 325 325 324 325 326 321 315 317 317 316 316 315 317 318 319 318 318 319 317 308 306 301 292 285 287 287
276 284 289 286 284 292 299 308 306 311 315 317 323 320 322 324 324 323 324 322 321 323 324 321 318 316 315 313 314 313 312 310 310 311 312 316 317 311 306 300 292 289 285 282
277 286 287 286 285 289 295 303 303 307 310 312 318 315 313 315 319 321 321 320 319 319 318 318 313 313 315 317 316 313 307 304 303 305 308 312 313 309 305 296 287 286 276 273
274 279 284 287 284 280 286 293 301 310 311 311 310 307 309 310 313 317 318 317 316 317 316 313 309 307 309 313 312 309 306 302 299 300 301 304 306 304 300 293 285 279 275 274
278 278 280 284 278 274 279 289 294 304 311 310 306 304 310 310 312 314 313 313 311 312 312 310 307 305 306 307 308 308 304 302 299 296 296 298 300 303 299 294 284 279 273 274
273 276 279 280 279 276 276 281 285 285 284 293 298 302 307 309 310 311 309 309 309 308 309 308 305 306 307 308 308 306 303 299 296 292 293 295 298 303 301 295 285 283 277 274
270 274 276 277 276 276 272 273 274 273 277 286 295 301 304 306 307 308 307 307 308 308 307 307 308 308 305 303 303 304 302 299 294 290 290 292 296 301 300 300 292 288 286 281
262 269 275 278 274 272 273 271 270 268 273 278 289 297 305 307 306 307 309 309 310 308 306 306 307 308 306 302 300 300 298 294 290 289 286 287 287 290 293 295 291 289 292 290
262 266 271 274 272 272 271 271 269 269 275 277 280 289 300 307 306 305 308 312 311 308 307 307 310 310 309 306 300 301 300 294 289 286 286 286 283 282 287 291 287 286 289 290
259 264 271 275 272 270 270 270 270 271 275 278 279 286 295 301 302 301 303 305 307 306 304 306 310 311 309 306 305 302 299 292 287 283 283 285 285 285 284 286 289 288 286 287
258 261 267 270 270 266 266 266 268 270 274 279 281 286 293 297 296 295 297 298 299 301 301 302 306 309 308 304 302 300 297 292 284 279 280 284 284 282 280 279 284 286 287 285
258 260 261 264 268 270 269 268 268 271 274 279 282 283 289 293 293 292 292 294 296 298 298 298 299 303 304 302 300 299 295 289 282 280 281 283 282 278 274 273 277 281 286 287
256 257 258 259 262 264 268 269 268 271 274 278 280 281 285 288 289 290 290 292 294 295 296 297 299 302 303 300 299 299 294 287 280 277 277 279 281 275 271 270 272 278 282 285
257 256 258 260 261 262 264 267 269 271 274 277 280 283 286 287 287 286 286 289 291 294 296 297 298 300 300 299 298 296 294 288 282 277 275 275 276 273 271 270 272 277 280 282
257 257 258 261 261 263 265 268 271 273 273 276 277 280 283 284 286 286 283 284 286 289 293 293 295 296 297 297 296 293 291 289 285 279 275 276 276 274 272 272 273 276 277 280
256 257 259 261 263 264 270 273 274 275 275 276 276 278 280 281 283 286 286 283 284 286 289 293 293 292 293 294 292 289 289 289 287 283 278 275 273 272 272 272 272 275 277 279
254 257 259 260 263 267 269 273 275 276 274 275 275 276 277 279 280 282 284 285 284 284 288 290 291 292 291 291 290 288 288 287 286 284 280 274 271 270 270 271 271 274 276 278
256 256 259 261 264 268 271 272 275 276 275 276 278 279 278 278 279 281 284 287 286 284 287 289 289 290 290 288 288 288 288 286 283 282 279 274 271 268 269 270 270 272 275 278
256 258 260 262 265 268 271 272 274 275 278 278 278 277 277 275 278 281 283 284 285 284 286 288 289 290 289 289 288 288 286 286 284 281 279 274 271 269 268 269 269 271 274 276
256 258 260 262 265 268 270 271 272 274 276 276 276 274 274 273 275 279 281 282 283 284 285 287 288 289 289 288 287 288 286 285 284 282 280 275 272 270 270 270 269 271 272 274
256 259 262 264 266 269 269 270 271 271 272 272 274 273 274 274 275 277 278 280 282 283 284 285 286 287 288 288 286 287 286 284 283 281 279 276 273 272 273 272 271 271 272 274
255 258 262 264 266 267 267 267 267 268 269 271 272 273 274 275 276 277 278 279 281 282 283 284 284 285 287 287 286 286 286 285 282 280 278 275 273 273 273 273 272 270 270 272
257 259 261 264 265 266 266 266 267 267 268 269 271 272 271 273 275 277 277 279 280 281 282 282 283 283 285 286 286 285 286 285 282 279 278 276 275 275 273 273 272 270 270 271
257 259 261 263 264 265 265 266 267 267 267 268 269 271 270 271 274 275 277 279 279 280 280 281 281 282 283 285 285 285 285 284 281 279 278 277 276 274 273 271 271 270 269 270